This is the latest recevied weather packets stored in our database for station/object WC4PEM-7. If no packets are shown the sender has not sent any weather packets the latest 10 day(s).
| Time | Temp. | Humidity | Pressure | Rain* | Wind** | Luminosity | Snow |
|---|---|---|---|---|---|---|---|
| 1787784890 | 31.11° C | 69% | 1014.8 hPa | 0 mm | - | - | - |
| 1787784590 | 30.56° C | 68% | 1014.6 hPa | 0 mm | - | - | - |
| 1787784408 | 30.56° C | 68% | 1014.5 hPa | 0 mm | - | - | - |
| 1787784290 | 30.56° C | 68% | 1014.5 hPa | 0 mm | - | - | - |
| 1787783990 | 30.56° C | 67% | 1014.3 hPa | 0 mm | - | - | - |
| 1787783690 | 31.11° C | 69% | 1014.3 hPa | 0 mm | - | - | - |
| 1787783390 | 31.11° C | 70% | 1014.1 hPa | 0 mm | - | - | - |
| 1787783090 | 31.11° C | 70% | 1014.1 hPa | 0 mm | - | - | - |
| 1787782948 | 31.11° C | 70% | 1014.1 hPa | 0 mm | - | - | - |
| 1787782790 | 31.11° C | 70% | 1014.1 hPa | 0 mm | - | - | - |
| 1787782490 | 31.11° C | 69% | 1014 hPa | 0 mm | - | - | - |
| 1787782190 | 31.11° C | 70% | 1014.1 hPa | 0 mm | - | - | - |
| 1787781890 | 30.56° C | 70% | 1014.2 hPa | 0 mm | - | - | - |
| 1787781590 | 30.56° C | 70% | 1014.2 hPa | 0 mm | - | - | - |
| 1787781290 | 30.56° C | 72% | 1014.1 hPa | 0 mm | - | - | - |
| 1787780990 | 30° C | 73% | 1014.3 hPa | 0 mm | - | - | - |
| 1787780690 | 29.44° C | 76% | 1014.4 hPa | 0 mm | - | - | - |
| 1787780390 | 28.89° C | 76% | 1014.3 hPa | 0 mm | - | - | - |
| 1787780295 | 28.89° C | 75% | 1014.2 hPa | 0 mm | - | - | - |
| 1787780090 | 28.89° C | 75% | 1014.2 hPa | 0 mm | - | - | - |
| 1787779790 | 28.33° C | 76% | 1014 hPa | 0 mm | - | - | - |
| 1787779490 | 27.78° C | 75% | 1014 hPa | 0 mm | - | - | - |
| 1787779190 | 27.78° C | 77% | 1014.1 hPa | 0 mm | - | - | - |
| 1787778892 | 27.78° C | 80% | 1014.1 hPa | 0 mm | - | - | - |
| 1787778590 | 27.22° C | 81% | 1014.3 hPa | 0 mm | - | - | - |
* Rain latest hour (hover to see other rain measurements)
** Current wind speed in m/s (hover to see current wind gust speed)